This demonstration page uses our WeatherBlox Daily Observations layout. Learn more.

Left ArrowRight Arrow

Hourly Observations for May 23, 2020

Temp ( °F °C ) Dew Point ( °F °C ) Humidity (%) Winds ( mph kmh ) Pressure ( in mb ) Visibility ( mi km ) Precip ( " mm )
12:12 am 00:12 Cloudy 62 16.7 57 13.9 84 84 NE 12 19 29.73 1007 10 16.0934 0 0
12:54 am 00:54 Cloudy 63 17.2 59 15 87 87 NNE 7 11 29.73 1007 10 16.0934 0 0
1:24 am 01:24 Mostly Clear 62 16.7 59 15 90 90 NNW 15 24 29.72 1006 9 14.48406 0 0
1:54 am 01:54 Partly Cloudy 63 17.2 59 15 87 87 N 13 20 29.72 1007 8 12.87472 0 0
2:01 am 02:01 Mostly Cloudy 63 17.2 59 15 87 87 N 12 19 29.72 1006 8 12.87472 0 0
2:12 am 02:12 Cloudy 63 17.2 59 15 87 87 N 13 20 29.72 1006 8 12.87472 0 0
2:28 am 02:28 Cloudy 63 17.2 59 15 87 87 NNW 9 15 29.72 1006 8 12.87472 0 0
2:36 am 02:36 Cloudy 63 17.2 59 15 87 87 N 12 19 29.72 1006 8 12.87472 0 0
2:45 am 02:45 Cloudy 63 17.2 59 15 87 87 N 12 19 29.72 1006 7 11.26538 0 0
2:54 am 02:54 Cloudy 63 17.2 59 15 87 87 N 12 19 29.73 1007 7 11.26538 0 0
3:45 am 03:45 Partly Cloudy 62 16.7 58 14.4 86 86 N 10 17 29.72 1006 8 12.87472 0 0
3:54 am 03:54 Mostly Cloudy 62 16.7 58 14.4 86 86 N 9 15 29.73 1007 8 12.87472 0 0
4:54 am 04:54 Partly Cloudy with Mist and Fog 59 15 57 13.9 93 93 N 6 9 29.75 1007 6 9.65604 0 0
5:32 am 05:32 Partly Cloudy with Mist and Fog 60 15.6 58 14.4 93 93 W 10 17 29.77 1008 5 8.0467 0 0
5:40 am 05:40 Mostly Cloudy with Mist and Fog 61 16.1 59 15 93 93 W 8 13 29.76 1008 6 9.65604 0 0
5:54 am 05:54 Cloudy 62 16.7 59 15 90 90 WNW 6 9 29.77 1008 7 11.26538 0 0
6:09 am 06:09 Cloudy with Mist and Fog 62 16.7 59 15 90 90 W 9 15 29.78 1009 6 9.65604 0 0
6:46 am 06:46 Mostly Cloudy with Mist and Fog 62 16.7 59 15 90 90 NW 9 15 29.79 1009 4 6.43736 0 0
6:54 am 06:54 Cloudy with Mist and Fog 62 16.7 59 15 90 90 NW 9 15 29.79 1009 4 6.43736 0 0
7:04 am 07:04 Cloudy with Mist and Fog 62 16.7 59 15 90 90 NNW 9 15 29.79 1009 4 6.43736 0 0
7:54 am 07:54 Cloudy with Mist and Fog 63 17.2 59 15 87 87 NW 7 11 29.82 1010 5 8.0467 0 0
8:54 am 08:54 Cloudy with Mist and Fog 63 17.2 59 15 87 87 NW 5 7 29.84 1011 6 9.65604 0 0
9:54 am 09:54 Cloudy 64 17.8 59 15 84 84 WNW 6 9 29.86 1011 7 11.26538 0 0
10:29 am 10:29 Cloudy 65 18.3 59 15 81 81 W 5 7 29.85 1011 8 12.87472 0 0
10:54 am 10:54 Cloudy 65 18.3 59 15 81 81 W 6 9 29.87 1011 9 14.48406 0 0
11:35 am 11:35 Cloudy 66 18.9 59 15 78 78 W 8 13 29.86 1011 8 12.87472 0 0
11:54 am 11:54 Cloudy 66 18.9 59 15 78 78 W 6 9 29.86 1011 7 11.26538 0 0
12:54 pm 12:54 Cloudy 70 21.1 61 16.1 73 73 VRB 5 7 29.84 1011 10 16.0934 0 0
1:40 pm 13:40 Partly Cloudy 72 22.2 61 16.1 68 68 NNW 5 7 29.8 1009 10 16.0934 0 0
1:54 pm 13:54 Sunny 74 23.3 62 16.7 67 67 N 6 9 29.81 1010 10 16.0934 0 0
2:54 pm 14:54 Sunny 76 24.4 63 17.2 64 64 NE 5 7 29.78 1009 10 16.0934 0 0
3:54 pm 15:54 Sunny 77 25 62 16.7 60 60 ESE 8 13 29.77 1008 10 16.0934 0 0
4:54 pm 16:54 Sunny 79 26.1 60 15.6 52 52 E 8 13 29.75 1008 10 16.0934 0 0
5:54 pm 17:54 Sunny 79 26.1 60 15.6 52 52 SSE 14 22 29.75 1008 10 16.0934 0 0
6:54 pm 18:54 Mostly Cloudy 77 25 61 16.1 58 58 SE 12 19 29.75 1008 10 16.0934 0 0
7:54 pm 19:54 Cloudy 76 24.4 61 16.1 60 60 E 10 17 29.75 1007 10 16.0934 0 0
8:54 pm 20:54 Clear 74 23.3 62 16.7 67 67 ESE 9 15 29.74 1007 10 16.0934 0 0
9:54 pm 21:54 Clear 73 22.8 61 16.1 66 66 ESE 10 17 29.74 1007 10 16.0934 0 0
10:54 pm 22:54 Cloudy 73 22.8 61 16.1 66 66 ESE 13 20 29.75 1007 10 16.0934 0 0
11:54 pm 23:54 Partly Cloudy 73 22.8 62 16.7 69 69 SE 14 22 29.74 1007 10 16.0934 0 0

Powered by AerisWeather